User: anonymous
Location: Young's Pond
(41.2695°N, 72.7766°W)
Time: 10:21:33
(UTC-04:00)
Language:

Spot 4 - Orbit

View from above orbital plane
View from above orbital plane
View from above satellite
View from above satellite

Ground track
Ground track

The orbit data is extracted from the following two-line orbital elements,

1 25260U 98017A   14209.23769653  .00000135  00000-0  44015-4 0  4034
2 25260 098.4571 273.4523 0011779 270.7421 089.2432 14.52997211848622
Epoch (UTC): 28 July 2014 05:42:16
Eccentricity: 0.0011779
inclination: 98.4571°
perigee height: 707 km
apogee height: 724 km
right ascension of ascending node: 273.4523°
argument of perigee: 270.7421°
revolutions per day: 14.52997211
mean anomaly at epoch: 89.2432°
orbit number at epoch: 84862

The dashed part of the orbit path shows where the satellite is in the earth's shadow,  

DLR